| time (UTC) | temp F | wind direction | speed knots | gust knots | rain 1hr in | rain 24hr in | rain mn in | humidity % | barometer mb |
| 20260505130110 | 53 | 248 | 3.5 | 7.0 | 0.11 | 0.26 | 0.26 | 95 | 1012.7 |
| 20260505123110 | 53 | 270 | 2.6 | 7.0 | 0.08 | 0.23 | 0.23 | 95 | 1012.5 |
| 20260505120110 | 54 | 248 | 2.6 | 5.2 | 0.00 | 0.15 | 0.15 | 94 | 1012.6 |
| 20260505113130 | 54 | 248 | 3.5 | 9.6 | 0.01 | 0.15 | 0.15 | 94 | 1012.5 |
| 20260505110110 | 54 | 248 | 3.5 | 9.6 | 0.03 | 0.15 | 0.15 | 94 | 1012.6 |
| 20260505100109 | 53 | 90 | 1.7 | 6.1 | 0.02 | 0.11 | 0.11 | 93 | 1012.7 |
| 20260505093111 | 53 | 90 | 2.6 | 4.3 | 0.02 | 0.09 | 0.09 | 92 | 1012.8 |
| 20260505090109 | 53 | 90 | 2.6 | 6.1 | 0.09 | 0.09 | 0.09 | 90 | 1013.0 |
| 20260505083109 | 54 | 203 | 0.9 | 4.3 | 0.07 | 0.07 | 0.07 | 87 | 1013.4 |
| 20260505080111 | 55 | 0.0 | 2.6 | 0.00 | 0.00 | 0.00 | 85 | 1013.6 | |
| 20260505073109 | 55 | 90 | 1.7 | 3.5 | 0.00 | 0.00 | 0.00 | 84 | 1013.6 |
| 20260505070109 | 55 | 90 | 2.6 | 5.2 | 0.00 | 0.00 | 0.00 | 84 | 1013.7 |
| 20260505063110 | 55 | 113 | 1.7 | 3.5 | 0.00 | 0.00 | 0.00 | 84 | 1013.9 |
| 20260505060109 | 56 | 0.0 | 2.6 | 0.00 | 0.00 | 0.00 | 83 | 1014.2 | |
| 20260505053109 | 56 | 0.0 | 2.6 | 0.00 | 0.00 | 0.00 | 83 | 1014.5 | |
| 20260505050130 | 56 | 248 | 1.7 | 4.3 | 0.00 | 0.00 | 0.00 | 83 | 1014.7 |
| 20260505040130 | 56 | 225 | 3.5 | 7.0 | 0.00 | 0.00 | 0.00 | 83 | 1014.6 |
| 20260505033109 | 56 | 225 | 3.5 | 8.7 | 0.00 | 0.00 | 0.00 | 81 | 1014.3 |
| 20260505030109 | 57 | 248 | 6.1 | 9.6 | 0.00 | 0.00 | 0.00 | 79 | 1014.0 |
| 20260505023130 | 58 | 248 | 7.0 | 11.3 | 0.00 | 0.00 | 0.00 | 76 | 1013.9 |
| 20260505020109 | 60 | 248 | 7.8 | 13.0 | 0.00 | 0.00 | 0.00 | 73 | 1013.9 |
| 20260505013108 | 61 | 270 | 8.7 | 13.9 | 0.00 | 0.00 | 0.00 | 70 | 1014.0 |
| 20260505010110 | 63 | 270 | 9.6 | 17.4 | 0.00 | 0.00 | 0.00 | 67 | 1014.1 |
| 20260505003108 | 63 | 270 | 9.6 | 16.5 | 0.00 | 0.00 | 0.00 | 66 | 1014.1 |
| 20260505000128 | 62 | 248 | 9.6 | 16.5 | 0.00 | 0.00 | 0.00 | 68 | 1014.1 |
| 20260504233108 | 63 | 270 | 10.4 | 17.4 | 0.00 | 0.00 | 0.00 | 67 | 1014.1 |
| 20260504230108 | 64 | 248 | 10.4 | 17.4 | 0.00 | 0.00 | 0.00 | 65 | 1014.3 |
| 20260504223108 | 64 | 248 | 11.3 | 19.1 | 0.00 | 0.00 | 0.00 | 63 | 1014.2 |
| 20260504220108 | 64 | 248 | 12.2 | 21.7 | 0.00 | 0.00 | 0.00 | 63 | 1014.5 |
| 20260504213108 | 64 | 248 | 12.2 | 20.0 | 0.00 | 0.00 | 0.00 | 65 | 1014.8 |
| 20260504210108 | 64 | 248 | 10.4 | 18.2 | 0.00 | 0.00 | 0.00 | 64 | 1014.8 |
| 20260504203108 | 64 | 248 | 9.6 | 19.1 | 0.00 | 0.00 | 0.00 | 65 | 1014.8 |
| 20260504200108 | 63 | 270 | 8.7 | 17.4 | 0.00 | 0.00 | 0.00 | 65 | 1015.1 |
| 20260504193128 | 62 | 248 | 9.6 | 15.6 | 0.00 | 0.00 | 0.00 | 65 | 1015.2 |
| 20260504190108 | 62 | 248 | 8.7 | 13.9 | 0.00 | 0.00 | 0.00 | 68 | 1015.2 |
| 20260504183107 | 61 | 248 | 7.0 | 14.8 | 0.00 | 0.00 | 0.00 | 69 | 1015.5 |
| 20260504180108 | 61 | 248 | 5.2 | 12.2 | 0.00 | 0.00 | 0.00 | 70 | 1015.4 |
| 20260504173107 | 60 | 248 | 5.2 | 12.2 | 0.00 | 0.00 | 0.00 | 74 | 1015.2 |
| 20260504170108 | 59 | 248 | 4.3 | 10.4 | 0.00 | 0.00 | 0.00 | 75 | 1015.1 |
| 20260504160107 | 58 | 248 | 3.5 | 9.6 | 0.00 | 0.00 | 0.00 | 76 | 1015.1 |
| 20260504150107 | 58 | 270 | 1.7 | 7.0 | 0.00 | 0.00 | 0.00 | 79 | 1014.7 |
| 20260504140107 | 55 | 248 | 2.6 | 5.2 | 0.00 | 0.00 | 0.00 | 84 | 1014.3 |